Wind_Speed
21 21 21 20 20 18 17 18 19 20 22 22 24 25 25 26 25 25 25 26 26 26 26 26 26 26 26 27 27 28 28 27 27 28 29 31 31 31 31 31 33 34 33 33 33 34 35 35 36 37 37 38 38 39 40 40 40 39 38 38 38 37 35 29 20 13 11 13 13 15 18 19 20 22 23 25 27 28 26 25 24 23 20 19 19
20 20 21 21 21 20 18 18 17 19 20 22 24 25 25 26 26 26 27 27 27 27 27 26 26 26 26 27 27 28 28 28 28 28 29 31 31 31 31 32 33 34 33 33 34 33 34 34 35 35 35 36 37 37 38 38 38 38 38 38 37 37 36 34 27 17 11 12 14 16 18 19 20 21 21 24 27 27 26 24 22 21 20 20 20
17 17 18 19 19 20 20 20 19 19 20 22 23 24 25 25 25 26 27 28 28 28 28 28 28 27 27 28 28 28 29 28 28 28 29 30 31 32 32 32 33 34 33 33 33 33 33 34 35 34 33 34 35 36 37 38 37 37 37 37 37 37 37 35 31 22 15 14 16 18 21 21 21 21 21 22 25 27 26 24 22 21 21 21 20
17 17 17 17 18 19 20 21 21 22 22 23 23 24 25 25 25 26 27 27 28 28 28 28 28 29 29 29 29 29 30 29 29 29 29 31 32 32 32 32 34 34 33 33 32 32 33 34 35 35 34 34 36 36 36 36 36 36 36 36 36 37 36 35 33 28 19 15 16 19 22 22 21 21 23 23 24 25 25 24 22 22 22 21 20
19 20 19 19 20 20 21 21 22 22 23 23 23 23 24 24 25 25 26 27 28 28 29 29 29 30 30 31 31 31 31 30 29 29 30 31 32 32 32 32 33 34 33 33 32 31 31 33 34 33 33 33 35 35 35 35 35 36 36 35 35 35 34 33 32 29 23 18 17 17 20 21 20 22 25 26 25 23 22 22 22 21 20 19 17
21 21 22 22 22 22 22 22 22 23 23 23 23 23 23 24 24 25 25 26 27 28 29 30 30 31 32 32 32 33 32 31 30 31 31 31 32 32 33 32 32 33 34 33 32 31 31 32 32 32 31 32 33 34 34 35 35 35 35 34 34 33 31 30 29 27 24 21 21 21 20 20 22 23 24 27 29 27 23 20 18 17 17 16 15
20 21 21 22 23 22 22 22 23 23 24 24 25 24 24 24 24 24 24 26 27 27 28 29 30 31 32 32 33 33 33 32 32 32 32 32 32 32 33 32 32 32 33 33 33 33 33 32 31 31 31 32 33 33 33 34 34 34 35 34 33 31 29 28 27 26 23 21 22 23 22 21 23 25 24 25 26 25 24 21 17 15 15 15 15
22 23 23 23 23 22 22 22 22 23 24 25 25 25 25 25 24 24 24 25 27 27 27 28 29 29 31 32 33 33 33 33 33 33 33 32 32 33 33 32 31 32 33 33 34 34 33 32 32 31 31 32 32 32 33 33 33 33 33 32 31 30 29 28 27 26 25 23 23 23 23 22 23 25 25 23 22 20 22 22 20 18 17 15 13
25 25 24 24 24 23 23 23 22 23 23 24 24 25 25 25 25 25 25 26 26 27 27 27 27 29 30 31 33 33 34 35 34 33 33 33 33 33 33 32 31 31 32 33 33 33 32 32 31 31 31 31 31 31 32 32 33 33 33 31 30 29 27 26 26 26 24 23 22 23 23 22 25 28 26 24 23 21 21 20 19 19 17 14 11
27 26 25 24 23 23 23 23 23 23 23 23 24 24 24 25 25 26 26 26 26 26 26 26 27 28 30 31 32 33 35 35 35 34 34 34 33 33 32 32 30 30 31 32 33 32 31 31 30 30 30 30 29 29 30 30 31 32 32 30 30 29 27 26 25 26 25 22 23 24 21 20 25 30 28 25 23 22 22 21 20 18 16 12 7
28 27 26 25 24 24 24 24 24 24 24 24 24 24 24 24 25 26 26 26 26 26 26 27 28 28 29 31 32 34 35 35 34 34 34 34 33 33 32 32 30 29 30 31 32 32 30 30 30 30 29 29 29 28 28 28 28 29 29 29 29 29 29 28 26 26 24 22 22 24 21 19 23 27 26 24 23 22 24 23 21 20 17 12 8
28 28 28 27 27 27 27 27 27 26 26 26 26 26 26 26 26 26 26 26 26 25 26 27 28 28 29 30 32 33 34 34 34 34 33 33 32 32 32 31 30 29 30 31 32 31 30 30 30 29 29 28 27 27 26 26 26 27 27 28 27 28 30 30 29 28 27 24 23 24 23 23 24 25 26 26 25 23 23 22 20 19 16 12 11
29 29 30 31 31 31 31 31 31 30 29 28 28 28 27 28 27 26 27 26 26 27 27 27 28 28 28 30 32 33 33 33 33 33 33 32 32 31 31 31 30 29 30 31 31 30 29 29 29 28 28 27 26 25 25 25 25 25 25 26 25 26 28 30 30 30 33 31 27 26 27 29 30 30 29 29 27 25 23 21 19 16 14 13 13
29 30 31 32 33 33 34 34 34 34 33 31 31 30 29 28 27 27 27 26 26 27 28 28 29 29 28 29 31 33 33 32 32 32 32 32 31 30 31 31 30 30 30 30 30 30 29 28 28 28 27 26 25 25 24 24 24 24 24 23 23 24 24 26 26 27 31 31 28 28 31 33 33 32 30 27 26 25 24 21 19 17 15 13 11
28 30 32 32 33 34 35 35 35 35 35 33 32 31 30 29 28 27 27 26 27 27 27 28 29 29 29 29 31 33 33 31 31 31 31 30 29 29 30 31 31 30 30 30 30 29 29 28 27 27 27 26 25 24 24 24 23 23 22 21 22 22 22 24 24 25 26 27 27 28 29 29 28 28 28 25 23 21 19 18 17 16 15 13 10
31 32 34 34 34 35 35 35 35 35 35 34 34 32 31 30 29 28 27 28 27 27 28 28 28 29 29 29 30 33 33 31 29 30 29 29 28 28 29 31 31 31 30 30 29 29 28 28 27 26 26 25 25 23 23 23 23 23 23 22 22 22 22 22 23 24 24 24 23 24 24 23 21 22 24 24 21 19 17 16 16 16 16 14 11
32 34 35 35 36 36 35 35 36 36 35 35 35 34 32 32 31 29 28 29 29 28 28 29 28 29 29 29 30 32 33 30 29 29 28 27 27 28 29 30 30 30 30 29 28 28 27 27 26 26 26 25 24 23 22 23 24 25 25 24 24 23 22 22 23 24 23 22 21 21 21 21 19 20 22 22 20 21 21 21 19 18 17 14 10
32 34 35 35 36 36 35 35 35 36 36 35 35 35 34 33 32 30 29 31 31 30 29 29 30 29 29 29 29 31 33 31 28 28 27 26 26 28 29 29 29 29 29 28 27 27 26 26 26 26 26 25 24 22 23 25 27 28 28 28 27 25 24 24 24 23 23 22 21 20 20 20 20 20 20 19 19 19 19 19 20 19 18 15 12
33 34 35 35 35 35 35 35 35 34 35 35 34 34 34 34 33 32 30 31 32 32 30 30 31 30 29 29 29 29 31 30 28 27 27 25 25 27 28 28 28 28 27 27 27 26 26 26 25 25 25 24 23 23 25 28 30 31 31 31 29 27 26 27 28 28 27 26 24 22 21 21 21 20 18 17 17 16 14 14 15 16 17 17 15
33 34 34 35 35 35 35 35 35 34 34 35 35 34 33 33 33 33 32 31 32 32 31 30 32 32 30 29 29 29 29 29 28 26 26 25 25 26 27 27 27 27 26 27 26 25 25 24 24 24 23 23 23 23 25 29 31 32 33 33 30 29 30 30 30 30 30 29 27 26 25 24 23 23 21 19 18 17 14 12 12 13 14 16 16
32 33 34 34 35 35 35 35 35 35 34 34 34 35 33 33 33 32 33 32 32 33 33 31 32 34 32 29 29 28 28 28 28 26 25 25 25 25 27 28 28 27 27 27 26 25 24 24 24 23 22 22 23 23 25 29 32 34 34 33 31 33 34 33 32 31 30 30 29 28 27 26 24 23 22 20 19 17 15 13 13 13 14 13 13
32 33 34 34 34 35 35 35 35 36 35 34 34 35 34 33 32 32 31 32 32 32 33 32 32 34 34 31 29 28 26 26 27 26 25 25 25 26 27 29 29 28 27 26 25 25 24 24 23 23 22 22 22 23 25 28 32 34 33 30 32 35 35 33 33 32 31 31 30 29 28 27 25 23 21 20 19 17 15 14 14 13 12 10 10
32 33 34 34 35 35 36 37 36 36 36 34 33 34 35 34 33 32 30 30 30 31 32 31 30 33 35 33 30 27 26 25 26 26 26 26 26 26 27 28 28 27 27 26 25 24 23 23 22 21 22 23 23 24 26 28 32 33 31 29 32 35 34 33 32 32 31 31 30 29 29 28 26 24 22 20 18 16 15 14 13 11 10 9 9
32 33 34 34 35 36 36 37 37 37 36 34 33 34 34 33 34 33 30 28 28 29 31 29 27 29 32 33 31 28 26 26 26 26 26 26 26 26 26 26 25 25 26 26 25 23 22 22 22 21 23 24 24 25 27 28 31 32 29 28 32 34 34 33 33 32 31 30 29 29 29 28 27 25 23 21 19 16 14 12 11 9 9 8 9
32 33 34 35 36 36 37 38 38 37 36 34 33 33 33 32 33 33 30 28 26 27 29 28 26 26 28 29 31 30 27 26 26 26 26 26 26 25 25 24 23 24 25 25 24 23 22 22 21 21 23 23 23 25 27 29 30 30 28 30 34 35 34 34 34 33 31 30 29 29 29 28 26 24 22 20 18 16 14 13 11 9 9 8 8
31 33 34 35 36 36 37 38 38 37 36 34 32 32 30 29 31 32 31 28 26 27 28 28 26 25 26 27 29 30 29 27 26 26 26 26 26 26 24 23 23 24 25 24 23 22 22 21 21 21 22 23 25 28 30 30 30 29 29 33 36 36 35 35 35 33 31 30 29 29 29 27 24 22 21 20 18 15 14 12 11 10 9 8 7
30 32 33 34 36 35 35 37 38 38 37 35 33 33 31 28 28 30 30 27 26 26 27 26 25 24 24 27 28 28 28 26 24 24 25 26 26 25 23 22 22 23 24 24 22 21 21 20 20 21 21 23 26 28 29 29 29 30 32 35 36 36 35 35 35 33 31 29 28 28 28 26 24 23 22 20 17 15 12 10 10 10 9 8 7
30 32 31 31 32 32 32 33 35 36 37 36 34 33 33 30 28 30 30 27 26 27 27 26 26 25 25 26 26 25 25 24 23 24 25 25 25 23 22 22 22 24 25 24 22 20 19 19 19 20 22 24 26 26 27 27 29 31 32 33 34 34 33 32 31 29 28 29 29 29 28 27 26 25 23 20 17 15 13 11 10 9 9 9 9
31 32 31 30 30 30 30 32 32 32 35 36 35 34 33 30 28 32 34 29 26 27 29 29 29 27 26 27 24 22 24 25 23 24 25 24 23 23 23 23 24 25 25 24 21 19 18 18 19 21 23 25 26 27 27 28 30 31 31 31 32 32 31 31 29 28 28 29 30 30 30 29 27 25 22 20 17 15 13 11 10 10 10 10 10
30 30 29 29 30 30 31 32 32 31 31 33 35 37 37 33 27 28 32 31 27 25 27 30 30 28 28 29 26 24 27 28 25 24 24 24 23 23 24 24 24 25 24 22 21 21 20 20 21 23 23 24 25 26 28 30 32 31 30 32 33 32 31 30 30 29 29 29 30 31 32 31 29 26 23 21 18 16 14 12 10 10 10 10 11
28 28 27 28 30 31 31 32 33 32 31 30 30 32 36 39 35 29 27 27 27 26 26 28 29 27 28 31 30 29 29 29 27 25 25 24 22 22 23 24 24 24 23 21 21 22 21 20 21 23 23 23 24 26 29 31 32 31 30 31 32 32 31 30 29 29 30 30 31 31 31 31 29 26 23 21 18 16 14 12 11 10 10 10 10
26 28 28 29 31 31 31 31 31 31 31 30 28 27 28 32 37 37 30 25 24 25 25 26 27 27 28 30 30 30 29 27 26 26 25 23 21 21 22 23 23 23 22 21 21 20 20 19 20 21 22 21 23 25 28 29 31 31 31 31 30 30 31 30 29 30 30 31 31 31 30 29 26 24 22 20 18 16 13 11 11 11 11 10 10
26 28 29 29 31 31 30 30 30 30 29 29 28 27 25 23 27 34 36 32 28 26 25 25 26 27 28 29 29 30 29 28 27 26 24 22 20 20 21 23 22 22 23 24 22 20 19 19 18 19 19 20 22 24 26 27 29 30 32 32 31 30 30 29 29 29 29 29 30 30 28 26 23 22 21 19 16 13 12 11 11 11 11 11 11
26 27 27 27 30 31 30 29 30 30 30 29 27 27 27 25 24 26 30 31 30 28 27 25 24 25 26 27 27 27 27 27 27 26 25 22 21 21 21 22 22 23 25 26 23 20 19 19 19 19 21 22 24 26 27 27 29 29 29 30 30 30 30 29 28 28 28 27 27 26 25 23 22 21 20 18 15 13 12 12 12 12 12 12 11
27 27 26 25 27 30 30 30 30 29 30 30 28 27 27 27 26 25 25 25 25 27 28 27 24 24 25 25 25 25 25 25 25 25 25 23 21 21 22 23 23 23 25 26 24 21 21 21 21 22 22 24 26 29 30 30 30 30 30 30 30 30 30 29 28 28 27 26 25 24 22 21 20 19 17 16 14 13 13 13 13 13 12 12 12
29 30 30 28 28 29 31 32 31 30 30 30 30 29 29 28 27 26 26 25 25 26 27 28 27 25 25 25 25 25 24 23 22 23 24 23 23 24 25 23 22 22 24 24 24 22 21 21 21 22 23 25 26 28 30 31 31 30 31 32 32 31 31 30 29 27 26 24 23 21 20 20 19 17 16 14 13 13 12 12 13 13 13 13 12
31 33 33 32 31 31 32 32 31 30 29 29 29 30 29 28 27 26 26 26 25 25 26 27 26 24 23 23 24 24 24 22 21 21 22 23 24 26 26 23 21 22 22 23 23 22 21 21 23 24 25 27 28 28 29 30 29 30 30 31 31 32 31 29 28 26 25 23 21 20 19 19 18 16 15 14 13 13 12 12 12 13 13 13 13
34 34 33 32 31 31 31 31 30 28 27 27 28 28 28 28 27 26 25 26 26 25 25 25 23 22 22 22 22 23 23 21 19 20 22 23 25 27 26 23 22 21 20 21 24 24 23 23 24 25 27 29 30 30 29 29 29 29 29 29 29 28 27 26 25 24 23 22 20 19 18 17 16 15 13 13 13 13 13 13 14 14 15 15 14
35 34 31 29 28 28 28 27 27 27 26 26 26 26 27 28 27 25 25 25 25 24 24 24 23 23 23 22 21 21 21 20 19 20 21 23 26 27 25 23 21 19 20 22 24 24 24 24 26 27 28 29 30 30 30 29 28 28 28 28 27 26 25 25 24 23 22 21 19 19 18 17 15 14 12 12 12 13 13 14 15 15 16 15 14
34 34 31 27 26 26 26 26 25 25 25 26 26 25 26 27 26 26 25 24 24 24 23 23 24 24 24 23 21 20 21 21 21 20 20 22 24 24 23 22 21 20 22 24 25 25 25 25 26 27 27 28 28 28 27 27 27 27 27 26 24 23 24 24 23 23 22 20 19 18 18 16 15 13 12 12 12 12 13 14 14 14 14 13 12
33 32 30 27 25 25 25 25 25 24 25 26 26 26 26 27 27 27 26 25 24 24 24 24 25 26 25 23 22 23 23 23 21 20 19 20 22 21 21 22 22 22 23 25 25 25 26 26 26 26 26 26 25 25 25 26 26 25 24 22 21 22 24 24 22 22 21 20 19 18 17 16 14 13 13 13 13 13 13 13 13 13 13 12 12
31 29 28 26 25 24 24 25 25 25 26 27 27 26 27 28 28 27 26 26 25 24 24 25 26 26 25 23 23 24 24 23 21 19 19 20 21 21 21 22 23 23 24 24 24 25 25 26 25 25 24 24 23 23 24 23 22 21 21 22 23 24 24 24 22 21 20 19 19 18 17 15 14 13 13 13 13 13 14 14 14 14 13 12 12
29 27 27 26 25 24 25 26 26 27 26 26 26 26 26 28 29 28 27 26 26 25 24 24 25 25 24 23 22 22 23 23 21 19 19 21 23 22 22 23 24 24 24 23 23 24 24 24 23 22 21 20 20 19 19 19 19 20 22 23 24 24 24 24 23 22 21 20 19 18 16 15 14 14 14 13 13 13 14 14 14 14 13 12 12
30 28 27 27 26 26 26 26 26 26 26 26 27 28 29 30 30 28 26 26 26 25 24 24 24 23 22 20 20 21 22 22 21 19 19 22 24 24 24 24 24 24 24 23 23 23 23 22 22 21 20 19 18 17 17 17 19 20 22 23 24 24 24 23 22 21 21 20 20 18 17 15 15 15 14 14 14 15 15 16 15 14 13 13 12
30 28 27 27 27 27 26 26 26 26 26 26 26 28 30 31 30 28 26 25 25 24 24 23 22 21 20 19 18 19 20 20 20 20 20 21 23 24 24 24 23 23 23 23 22 21 20 20 20 20 20 19 18 17 17 18 18 18 19 20 21 21 20 19 18 19 19 19 18 17 16 16 15 15 15 15 15 16 16 16 15 14 14 13 13
31 29 27 27 27 27 27 27 26 26 26 26 27 28 30 31 30 28 26 25 24 24 23 21 20 19 19 18 17 17 18 19 20 20 20 21 22 22 23 22 22 22 21 21 20 19 18 18 19 20 20 21 20 20 19 19 19 17 16 16 15 16 16 16 16 17 17 16 16 15 15 15 14 14 15 15 15 15 15 15 14 14 14 13 12
31 30 30 29 28 27 27 27 27 26 26 27 29 29 29 29 28 27 26 25 24 22 21 19 18 18 18 18 17 16 17 18 19 20 20 20 21 21 22 22 22 22 21 20 19 17 17 17 18 19 21 22 22 21 21 20 19 18 17 16 15 15 15 16 16 15 15 15 14 14 14 14 14 15 15 15 15 15 15 15 14 13 12 12 12
29 30 32 33 31 28 27 27 26 26 26 28 29 29 28 28 26 25 24 23 22 20 19 17 17 17 18 17 17 16 17 17 18 19 19 20 20 21 21 21 22 21 20 19 18 17 17 18 19 20 21 22 21 21 20 19 19 18 17 16 15 14 15 15 14 14 14 14 13 13 13 13 14 14 15 15 15 15 14 14 14 13 12 12 12
27 27 29 30 29 27 26 27 27 27 28 29 29 29 27 26 25 24 22 20 18 17 16 15 15 16 17 17 16 16 17 18 18 19 20 20 21 21 21 20 20 20 19 19 19 19 19 19 19 20 20 20 19 18 18 17 16 15 15 14 14 13 13 13 13 13 13 13 13 13 14 14 14 14 14 14 14 13 13 12 12 11 11 11 12
26 24 25 25 24 25 26 27 27 27 27 27 27 26 24 24 22 20 18 15 13 12 12 13 14 15 16 16 16 16 17 18 19 20 20 20 20 20 19 19 19 19 20 20 20 20 19 19 19 19 18 18 17 16 15 15 14 14 13 13 13 12 12 12 13 13 13 13 13 13 14 14 14 14 14 13 13 13 12 12 11 11 11 12 13
27 25 25 24 24 24 24 24 24 24 24 23 22 21 20 19 16 13 11 10 9 9 10 11 12 14 14 15 16 17 17 18 19 20 20 19 19 19 19 19 20 20 20 20 20 19 18 18 17 17 16 16 15 15 14 13 13 13 12 12 12 13 13 13 13 13 13 13 13 13 14 14 14 14 13 13 13 12 12 11 11 11 12 12 12
Wind_Direction
334 330 326 322 316 312 308 303 298 291 287 284 281 280 279 277 277 277 276 275 273 272 273 274 275 275 274 274 273 272 270 270 269 266 265 265 264 264 265 265 262 260 265 269 266 263 260 257 254 252 250 247 245 245 245 245 245 242 239 238 236 234 233 230 235 243 225 217 217 212 211 210 209 211 212 209 207 208 207 206 206 204 204 208 215
334 330 327 324 320 318 315 310 305 299 293 289 286 286 285 283 282 280 278 277 276 274 275 276 277 276 275 274 274 273 272 270 269 267 265 265 263 262 262 262 262 261 264 267 265 263 260 257 256 255 253 250 248 248 248 246 244 242 239 237 236 236 234 229 230 235 220 206 206 200 198 202 204 204 205 205 202 200 198 198 199 199 203 210 215
340 335 331 330 329 327 325 321 316 310 305 301 297 295 293 290 288 284 283 282 280 278 278 278 277 276 274 274 273 272 272 270 268 266 265 264 263 262 261 261 261 261 263 267 268 264 260 258 258 258 256 253 252 251 251 248 245 243 241 240 238 238 236 230 228 228 215 198 197 195 190 195 201 199 198 200 197 194 195 194 195 198 203 209 213
350 345 342 341 340 336 334 331 326 321 318 313 309 306 302 298 294 290 288 287 284 282 281 280 278 276 274 273 273 271 270 269 267 266 265 264 263 262 261 261 261 261 264 268 270 267 262 258 258 259 257 254 253 252 250 248 246 245 244 243 241 240 238 233 228 226 215 192 188 192 188 188 196 194 189 189 190 191 190 189 192 196 200 205 211
356 353 351 349 348 347 345 342 337 332 328 323 319 315 309 305 301 298 294 292 289 287 285 282 279 277 275 274 274 273 272 270 268 267 266 264 263 262 262 262 263 264 266 269 270 268 264 261 260 259 256 253 252 251 249 248 247 245 243 242 241 240 237 233 229 225 216 194 178 181 185 184 183 184 183 180 177 177 178 182 187 191 196 205 213
359 356 354 352 352 354 352 349 344 339 335 330 326 322 317 312 308 304 301 297 294 291 287 284 281 278 277 276 274 273 273 271 269 268 267 265 263 262 261 262 264 266 267 268 270 270 268 265 263 261 257 254 252 251 251 250 247 244 242 241 240 237 233 230 225 219 213 197 178 171 175 174 167 167 175 175 170 168 168 173 183 192 200 206 207
1 359 357 356 355 355 353 350 345 341 337 334 331 328 324 320 314 311 306 300 296 293 289 287 284 281 279 277 275 273 272 270 268 268 266 264 263 262 261 261 264 267 268 268 271 272 271 269 266 263 260 258 257 255 253 251 248 245 243 241 237 232 227 224 217 209 201 187 175 170 166 165 163 162 167 172 171 172 173 171 175 185 194 196 194
5 3 1 0 358 356 353 350 345 341 338 335 333 331 329 324 320 315 309 303 299 297 294 291 287 283 280 277 274 272 270 268 267 266 265 264 263 261 261 261 264 267 269 269 271 271 271 270 268 266 264 263 262 260 256 253 250 246 243 240 234 228 222 215 207 200 192 180 172 167 161 161 164 162 164 170 172 176 182 180 175 175 178 182 185
7 6 4 2 359 355 352 349 345 342 339 337 335 333 330 327 323 317 312 308 304 301 297 293 288 284 280 277 274 271 268 267 267 266 265 264 263 261 261 261 264 268 269 270 271 271 270 270 269 268 268 266 265 263 259 256 252 248 245 238 230 223 217 209 200 192 185 176 168 165 162 164 167 164 166 175 181 183 186 181 172 170 172 173 176
6 6 6 3 359 354 351 348 344 342 339 338 336 333 330 326 322 318 315 311 308 305 300 294 289 285 282 279 275 271 268 267 267 267 266 265 264 262 262 262 264 268 270 269 270 271 271 272 272 272 270 267 265 262 259 257 254 252 248 242 233 222 211 203 198 191 184 176 170 168 166 167 170 171 173 180 187 186 181 174 166 162 164 162 158
5 5 4 2 358 355 352 349 347 344 341 338 336 334 331 328 323 320 317 314 311 307 301 295 291 288 284 281 277 274 272 271 270 269 268 266 264 263 263 263 265 268 269 269 269 271 272 273 273 272 269 266 263 261 258 255 253 251 247 244 240 231 217 205 196 189 184 177 171 170 169 167 171 175 177 180 184 183 179 175 169 165 164 158 148
3 2 1 359 357 355 353 350 349 348 345 342 338 336 333 330 327 323 319 317 313 307 302 297 294 291 287 283 279 277 275 274 273 271 269 267 265 265 264 263 264 268 270 269 269 270 271 272 272 270 267 265 262 260 256 253 250 247 243 241 238 233 227 218 206 196 187 176 170 171 171 168 171 178 182 181 179 176 175 174 174 173 172 167 156
2 0 359 357 355 353 351 349 347 347 346 343 339 337 334 331 330 327 323 320 315 309 305 301 298 294 290 285 283 281 279 277 275 272 270 268 265 265 264 262 264 269 270 269 268 268 269 269 269 267 266 263 260 256 252 248 244 239 236 235 230 226 223 220 214 205 194 181 171 172 177 177 179 185 188 184 177 171 169 171 174 177 179 175 164
360 357 356 356 353 351 350 347 346 345 344 342 338 336 334 331 330 328 325 321 316 312 309 305 301 297 293 290 287 285 282 280 278 274 271 269 266 265 263 261 263 269 270 268 267 267 267 267 265 265 263 260 256 252 247 242 235 228 225 221 217 214 211 209 206 199 192 186 180 180 185 188 189 188 186 185 183 179 175 175 177 178 177 171 165
356 354 352 352 351 350 348 346 344 343 341 339 336 335 333 330 329 328 324 319 315 312 308 305 302 299 296 293 289 287 285 283 281 277 273 270 268 265 262 260 260 265 267 266 265 266 266 266 264 262 260 257 254 251 245 235 224 215 210 203 199 197 196 198 196 190 187 188 188 186 186 188 190 187 183 184 187 187 184 183 180 175 167 159 160
353 350 348 348 347 347 346 344 342 341 339 337 334 333 332 329 328 326 322 317 313 310 307 304 301 299 297 293 288 287 287 286 283 280 276 272 268 265 262 259 259 261 263 264 265 265 264 263 261 259 257 255 253 250 241 229 214 201 192 185 182 182 182 185 187 183 181 183 188 192 188 184 185 186 183 182 182 180 175 170 169 167 161 156 162
349 346 345 344 343 343 343 341 340 339 338 335 333 331 329 327 327 325 320 315 312 309 307 304 301 298 295 292 288 287 288 287 284 281 277 273 268 264 260 259 258 259 261 262 263 263 262 260 258 256 254 252 250 244 232 219 204 191 181 174 172 170 170 175 179 183 188 191 192 192 187 179 177 180 182 182 182 181 173 164 167 171 164 160 168
344 342 341 340 340 340 339 338 338 336 335 333 331 329 327 326 325 324 319 314 311 309 307 303 300 296 294 291 289 287 287 287 285 282 278 273 267 263 260 258 257 257 259 260 261 261 260 258 256 253 251 250 246 237 224 211 197 187 178 170 167 164 164 169 172 175 180 179 173 170 168 167 169 173 178 180 181 185 182 174 175 177 174 174 178
340 337 336 336 336 337 336 336 335 334 332 331 329 327 325 324 323 322 318 313 310 308 306 302 298 296 293 292 289 286 285 286 284 280 277 272 266 261 258 255 254 254 255 257 257 258 257 255 254 251 249 247 241 230 217 206 195 186 178 171 167 165 165 166 162 156 152 150 149 151 154 158 161 163 166 171 175 181 186 184 181 182 185 188 184
335 333 332 333 333 334 334 333 332 332 330 329 327 324 322 322 322 321 319 315 311 308 305 301 298 296 294 292 289 285 284 284 283 279 276 270 264 259 255 251 250 251 253 252 252 252 251 250 249 246 243 241 234 222 211 204 196 187 180 176 172 167 165 163 159 153 148 146 149 152 154 156 159 160 162 168 174 178 182 185 190 196 199 197 193
332 331 330 331 331 331 331 331 330 329 328 328 325 322 321 320 319 319 318 315 312 308 306 303 300 298 296 292 289 286 284 283 281 278 274 269 264 257 252 249 249 250 250 250 248 247 245 243 243 240 236 233 226 212 201 200 196 189 184 181 177 171 166 161 159 157 154 152 153 154 155 157 160 163 166 170 173 178 184 189 196 205 207 204 202
330 329 328 329 328 328 328 328 327 326 326 327 325 321 320 319 317 316 315 313 310 307 305 304 301 299 298 295 291 288 286 283 280 277 272 268 264 259 253 251 251 250 247 247 245 243 241 240 239 235 228 223 217 204 196 196 195 191 187 183 179 174 168 160 157 156 155 154 154 154 157 160 163 166 169 171 173 179 186 190 196 201 203 206 210
329 327 327 327 327 327 327 326 326 325 325 327 325 321 319 318 316 315 313 311 309 305 303 303 301 299 298 296 294 291 289 285 280 277 273 269 266 262 257 255 253 248 244 245 243 241 239 236 235 230 222 216 210 201 194 193 193 189 185 182 180 175 166 158 156 156 155 155 156 157 161 166 169 170 172 173 174 178 184 188 193 196 197 203 209
328 326 327 326 325 326 325 324 324 324 325 326 324 320 320 319 316 314 311 309 305 301 300 300 298 296 295 296 295 294 291 287 282 277 275 272 268 264 260 257 252 246 244 245 244 242 239 236 233 227 220 215 208 199 193 192 190 187 182 180 178 171 163 159 158 157 157 158 160 162 166 171 174 174 174 175 174 177 181 184 187 190 196 203 208
327 326 325 324 323 324 323 322 323 323 324 324 322 319 319 317 313 311 309 305 301 297 295 295 293 291 290 291 293 294 292 289 283 279 276 273 269 264 260 256 249 243 242 243 244 243 242 239 236 229 220 212 201 193 192 191 190 187 183 180 176 169 164 162 161 161 162 164 167 169 171 175 178 177 175 175 175 176 180 181 181 188 198 203 206
327 325 324 322 322 323 322 321 321 322 322 322 320 317 315 312 309 307 304 300 297 293 291 291 289 287 286 287 289 292 292 288 283 279 277 273 269 264 257 252 247 242 241 242 242 242 241 238 233 224 215 204 195 190 190 189 187 184 182 180 176 171 168 168 167 168 169 169 171 172 172 174 176 175 174 176 177 179 182 184 184 190 200 205 204
324 322 321 320 319 321 321 320 320 320 319 319 318 316 313 309 305 301 298 296 294 291 289 288 286 284 284 286 287 290 289 286 281 278 276 273 269 262 254 246 240 235 233 233 234 233 232 230 227 220 211 202 196 192 189 185 179 174 176 178 176 173 175 176 175 174 173 172 173 173 172 172 173 173 175 178 178 179 183 190 191 191 197 203 200
321 318 318 318 317 318 319 317 317 317 316 316 315 312 310 308 302 297 294 291 288 287 286 285 283 282 282 284 287 288 287 282 278 278 278 273 267 259 248 237 230 225 223 223 222 220 220 220 218 214 206 197 191 186 182 176 170 169 172 174 172 172 175 176 175 175 175 175 174 172 171 171 172 173 176 177 179 181 184 190 197 198 199 202 199
321 318 318 318 317 318 317 315 314 313 312 312 312 309 307 304 300 297 297 294 287 284 283 280 280 282 281 281 282 282 282 282 282 283 283 277 267 257 245 235 227 223 220 218 212 207 206 206 207 204 198 189 181 175 171 166 164 167 170 170 169 171 174 175 175 177 179 178 175 171 170 171 172 175 177 177 179 184 187 194 203 204 203 208 210
319 317 318 318 317 317 316 314 312 311 310 309 310 310 308 306 299 294 296 297 293 285 278 277 278 280 279 278 276 273 276 281 285 285 284 279 271 259 248 239 230 223 218 213 205 199 195 196 202 202 195 186 176 170 166 162 161 165 167 168 169 173 176 177 180 181 180 178 174 172 172 173 174 176 179 179 180 184 190 197 206 208 209 213 216
317 316 317 316 315 315 314 312 311 310 308 307 307 308 308 309 306 299 293 295 295 288 278 275 276 275 273 273 274 273 274 277 280 279 279 278 272 259 246 236 228 222 215 204 198 199 196 196 201 202 196 187 178 171 167 163 163 164 163 164 169 175 178 180 184 184 180 176 175 175 176 177 176 177 180 183 184 187 192 197 204 210 215 217 221
315 313 314 314 313 313 311 309 309 308 307 307 306 304 304 306 308 306 303 299 296 290 283 278 277 275 272 270 271 271 271 273 275 275 274 273 267 253 238 228 222 218 210 202 200 204 203 202 203 201 196 187 177 171 167 164 163 164 162 162 168 177 182 185 187 185 181 177 176 177 178 178 178 179 181 185 187 188 192 198 204 211 216 218 221
313 311 312 312 312 310 308 307 306 304 303 303 302 301 299 296 299 303 305 304 300 294 286 281 279 279 276 272 270 269 269 270 270 270 269 264 254 240 228 220 215 209 202 201 204 206 205 206 205 198 191 182 174 169 166 164 165 165 165 166 172 179 184 186 186 184 180 178 178 178 177 178 179 178 181 185 190 192 195 201 207 212 216 219 222
312 309 309 310 309 306 305 304 302 300 299 297 295 294 292 289 287 290 296 300 301 299 293 287 283 281 279 275 270 268 268 267 266 264 262 255 241 228 220 215 210 206 204 205 206 204 202 202 198 190 184 177 171 168 165 166 168 168 167 171 177 180 182 184 184 182 179 178 178 178 177 178 179 179 181 184 188 194 199 204 210 214 217 221 226
313 309 307 306 304 302 302 301 300 298 296 294 292 289 287 287 285 282 281 285 289 291 292 290 286 281 278 274 270 266 264 261 260 259 257 248 232 219 213 209 207 206 207 206 204 202 199 196 190 184 179 174 170 169 168 169 172 172 171 175 179 180 180 181 181 180 178 177 177 177 176 177 180 183 187 189 191 197 201 206 213 219 221 225 228
313 310 308 307 303 300 299 298 296 295 292 290 289 288 285 283 282 280 278 277 276 278 283 285 285 283 278 272 268 265 260 256 253 251 248 240 225 212 207 205 202 203 205 204 201 198 196 192 185 180 176 172 171 171 171 173 175 176 177 181 182 181 180 179 177 176 175 175 175 175 175 178 183 186 190 192 195 201 207 212 217 222 225 227 227
311 309 307 306 304 301 299 297 295 293 290 286 285 286 284 282 279 278 277 275 273 274 276 279 282 281 275 269 265 260 255 251 248 243 240 235 224 214 208 204 202 202 203 200 194 190 189 187 183 179 176 173 173 174 175 177 179 180 182 184 184 181 179 177 175 175 174 173 173 175 178 183 187 190 192 193 193 198 207 214 217 222 225 225 225
308 305 303 302 301 299 297 295 294 293 290 285 283 283 283 281 278 276 274 273 272 272 272 274 275 273 268 267 263 256 250 246 242 240 240 233 222 213 209 206 205 205 200 192 187 186 185 185 183 181 179 177 177 179 180 181 183 184 184 183 181 178 176 173 173 174 174 173 174 179 184 187 191 194 196 195 195 200 207 214 217 219 220 220 223
308 305 302 299 296 294 291 289 290 292 290 286 283 283 282 281 278 275 273 272 270 269 270 270 270 267 265 265 259 247 238 233 232 235 235 225 214 210 207 204 202 198 191 184 185 186 185 184 184 184 182 181 181 182 183 183 185 186 185 180 176 174 173 173 173 174 176 178 180 183 188 191 192 194 196 197 200 205 210 215 219 220 220 223 228
309 306 304 300 295 291 288 285 285 287 287 285 284 282 281 280 278 275 272 270 268 268 268 267 267 266 265 261 250 236 227 225 227 230 226 214 206 206 203 198 193 189 184 183 185 187 187 186 185 184 183 184 184 184 185 186 185 184 182 179 176 175 176 177 178 178 180 183 186 188 191 193 192 192 195 199 204 209 213 217 220 222 224 229 232
309 305 302 300 296 291 288 284 282 283 284 284 284 282 280 280 279 276 272 268 267 267 267 266 266 267 265 258 247 236 229 226 228 228 220 208 202 200 196 191 188 186 184 184 186 187 187 187 186 185 185 185 185 185 185 184 183 181 179 179 179 178 177 178 180 183 185 187 190 191 193 194 194 196 198 201 204 208 213 217 221 223 225 227 228
309 303 300 299 296 292 289 287 286 286 285 284 282 279 279 280 281 277 271 268 266 265 265 265 266 265 262 255 245 237 230 227 227 225 215 201 194 191 189 187 187 189 189 190 190 191 190 188 187 187 186 184 183 183 182 183 184 184 184 182 180 179 177 178 181 185 188 190 192 193 194 194 196 198 200 201 203 207 212 217 221 222 223 223 226
307 301 298 296 293 289 287 287 288 287 284 282 281 280 281 283 282 277 272 268 265 263 263 263 264 262 257 250 242 234 228 224 222 218 205 192 186 184 183 184 188 192 195 196 196 195 192 188 185 184 185 185 187 189 191 192 192 189 184 182 180 180 181 181 183 186 189 191 192 193 194 194 195 196 197 200 203 207 213 218 220 220 222 224 227
306 302 298 295 292 289 286 285 285 284 283 283 283 284 286 286 283 277 271 267 264 262 260 259 258 254 249 241 232 226 222 218 213 207 196 186 182 181 181 182 186 189 191 193 193 193 191 189 186 185 185 185 187 190 192 192 190 186 183 182 182 183 184 186 187 189 191 191 192 193 193 193 194 196 197 201 205 210 214 218 219 219 221 224 227
306 302 298 296 294 291 289 287 285 283 284 286 286 287 288 288 283 276 271 267 264 261 257 254 250 243 235 227 219 214 211 207 201 196 189 182 179 180 181 182 185 187 188 188 187 187 188 188 188 186 183 180 178 178 178 178 179 182 185 186 185 186 188 190 191 191 192 193 194 195 194 193 195 197 200 205 210 214 217 220 221 221 222 225 230
306 301 298 295 292 290 289 288 287 285 285 287 289 289 290 288 284 278 272 267 262 258 253 247 240 232 224 216 210 205 201 197 192 188 185 181 177 176 177 178 179 179 179 178 178 180 183 186 186 184 180 174 170 169 170 170 170 174 178 181 185 187 188 188 188 189 191 194 196 195 194 195 196 200 206 210 213 216 219 221 223 224 226 230 235
306 302 299 295 292 289 288 287 287 287 288 290 291 290 290 288 284 280 273 267 260 253 246 237 230 222 214 208 204 198 192 188 186 183 181 179 175 173 172 172 171 170 170 170 172 176 178 180 181 178 173 168 165 165 166 167 167 170 174 176 179 182 182 183 186 188 191 195 197 197 198 200 201 204 208 211 213 216 219 221 224 227 229 232 237
309 306 303 300 295 288 286 287 288 289 290 292 291 290 289 288 285 280 273 265 255 246 237 227 219 212 206 201 197 191 184 180 179 177 175 172 170 169 169 168 167 167 168 169 171 171 168 167 167 166 165 164 165 167 168 169 171 174 176 177 178 181 183 185 188 190 192 195 197 198 201 204 206 208 211 213 215 218 221 222 226 228 229 232 236
312 309 307 305 299 292 291 293 293 292 293 294 292 290 289 288 284 279 271 261 249 238 228 217 207 203 199 195 190 183 177 174 173 171 168 166 165 166 167 167 167 168 169 168 168 166 162 159 159 160 162 164 166 168 170 171 172 173 174 175 177 180 183 186 189 191 193 196 198 200 203 207 209 211 214 216 218 221 223 225 228 229 229 232 236
320 314 310 308 305 302 301 301 299 297 298 297 295 293 291 289 284 277 267 254 240 227 216 206 199 196 195 190 185 180 176 173 170 168 166 164 164 166 168 169 169 169 168 166 163 159 157 157 158 159 161 163 165 167 168 169 170 171 174 177 179 181 184 187 190 192 194 198 201 203 206 208 210 212 215 217 219 222 225 226 229 230 231 234 237
331 325 318 313 312 313 314 313 311 311 310 307 304 301 298 293 286 276 261 245 227 210 199 194 191 190 188 185 181 179 176 172 169 166 164 163 164 166 168 169 167 165 163 160 157 155 155 156 157 158 160 162 163 164 165 167 169 173 176 179 183 186 189 191 193 194 197 200 203 205 207 210 212 215 218 220 222 226 228 230 231 234 236 236 237
Height
797 796 796 795 794 794 793 793 792 791 791 791 790 790 790 790 790 791 791 790 791 791 791 791 791 792 792 793 793 793 794 795 795 796 796 795 795 795 796 797 797 796 796 796 796 796 796 795 794 794 794 794 794 795 796 797 798 798 799 799 800 801 804 805 803 802 804 806 805 806 807 809 810 811 812 814 817 821 825 828 830 832 834 835 837
795 795 794 793 792 791 790 790 790 790 790 789 789 789 788 789 789 789 788 788 789 789 788 788 788 788 788 789 790 790 790 791 791 792 792 791 791 792 792 793 792 792 792 792 792 792 792 791 791 791 791 791 791 791 792 793 793 793 794 794 794 796 798 799 799 800 803 804 804 804 805 807 808 809 810 811 814 818 822 825 828 830 831 832 834
795 794 793 792 790 789 788 788 788 788 788 787 787 787 786 787 787 787 786 786 787 787 786 786 786 786 785 785 785 786 787 787 788 788 788 787 787 787 788 788 788 788 788 787 788 788 788 787 787 788 788 788 787 788 788 788 789 789 789 789 790 791 792 794 795 797 799 801 801 801 802 804 806 807 809 810 813 816 820 823 825 827 828 830 832
795 794 792 791 790 789 788 787 787 786 786 785 785 785 784 784 784 784 784 783 783 783 783 783 783 783 783 782 782 782 782 783 784 784 784 784 783 783 784 784 784 783 783 783 784 784 784 783 783 784 785 784 783 784 784 784 785 785 785 785 786 787 788 789 791 793 795 797 799 800 800 802 803 805 807 809 813 815 818 821 823 825 826 829 831
794 793 792 790 789 788 787 787 786 785 784 784 783 783 782 782 781 781 781 780 780 780 780 779 779 779 779 779 779 778 779 779 780 780 780 780 780 780 780 780 780 780 779 779 780 780 780 779 779 780 780 779 779 780 780 781 781 781 781 781 782 783 785 786 788 791 793 794 796 799 800 801 802 804 806 807 811 814 817 819 821 823 825 827 829
794 792 791 790 788 787 786 786 785 784 783 782 781 781 780 779 779 778 778 777 777 776 776 776 776 775 775 775 775 774 775 775 775 775 776 776 776 776 776 776 776 776 776 775 776 776 776 775 775 776 776 775 775 776 776 777 777 777 777 778 779 780 781 783 785 788 790 791 793 796 799 800 801 804 806 807 808 811 815 818 821 823 824 826 828
793 792 791 789 788 787 786 785 784 782 781 780 779 778 778 777 776 776 776 774 773 773 773 773 772 772 772 771 771 771 771 771 771 772 772 772 772 772 773 773 772 772 772 772 772 772 772 771 772 772 772 771 771 772 773 773 773 774 774 774 775 777 778 780 782 785 788 789 791 793 795 798 801 803 805 808 810 811 812 816 820 822 823 825 827
793 791 790 789 788 786 785 784 783 782 780 779 778 777 776 775 774 774 773 772 771 771 770 770 770 769 768 768 767 768 767 767 768 768 768 768 769 769 769 769 769 768 768 768 768 768 767 767 767 768 767 768 768 769 769 770 770 770 771 771 772 773 775 777 779 782 784 786 789 791 793 796 799 801 803 807 809 810 811 813 816 819 822 824 826
792 791 789 788 787 786 784 783 782 781 780 778 777 776 774 773 772 771 770 769 769 768 768 767 766 766 765 764 764 764 763 763 764 764 765 765 765 765 765 765 765 764 764 764 764 764 763 763 763 763 764 764 764 765 766 766 767 767 767 768 769 771 773 774 776 778 780 783 785 788 790 793 794 796 799 803 805 807 809 811 814 817 820 823 825
791 790 789 788 787 785 784 783 782 780 779 777 776 774 773 772 770 769 768 767 767 766 765 764 763 762 762 761 761 760 760 760 760 761 761 761 761 761 761 761 761 761 760 760 760 759 759 760 759 760 760 760 761 761 762 763 763 764 764 765 766 768 770 772 774 775 776 779 781 783 787 790 791 792 795 799 802 804 807 809 812 816 819 821 824
790 789 789 788 786 785 784 782 781 780 778 776 775 773 772 770 769 767 766 765 764 763 763 761 760 760 759 758 757 757 756 757 758 758 758 758 758 758 758 758 758 758 757 756 756 756 756 756 756 756 756 756 757 757 758 759 760 761 762 762 764 765 766 768 771 772 773 775 777 780 784 787 790 792 794 797 800 802 804 807 810 813 816 819 821
790 789 788 786 785 783 782 780 779 778 776 775 773 771 770 768 766 765 764 763 762 760 759 758 757 757 756 755 754 753 753 754 755 755 755 756 756 755 755 754 754 754 754 753 753 753 753 753 752 752 752 753 753 754 755 756 756 758 759 760 761 762 763 765 766 768 770 772 774 778 780 784 788 791 792 794 796 799 803 805 808 811 813 816 819
789 788 786 785 783 781 780 778 776 775 774 772 770 769 767 765 764 762 761 760 759 757 756 755 754 754 753 752 751 750 749 750 751 751 751 752 752 752 751 751 751 750 750 750 749 749 749 749 749 749 749 750 750 751 751 752 753 755 756 757 758 759 761 763 763 763 765 768 772 776 778 780 783 786 789 791 793 797 801 804 806 809 812 814 816
788 787 785 784 782 780 778 776 774 773 771 770 768 767 765 764 762 760 758 757 756 754 753 752 751 750 750 749 747 746 746 747 748 748 748 748 748 749 748 747 747 746 746 746 746 746 746 746 746 746 746 747 747 748 748 749 750 752 753 754 755 757 759 762 763 763 764 768 771 774 775 777 779 782 786 789 791 794 798 801 804 807 810 813 814
788 786 785 783 781 779 777 775 773 772 770 768 767 765 764 762 761 759 757 755 753 752 750 749 748 747 747 746 744 742 742 744 745 745 745 745 745 745 744 744 743 742 742 743 743 743 743 743 743 743 743 744 744 745 746 747 748 750 751 753 754 756 758 761 762 763 765 768 771 772 774 776 779 781 785 788 791 794 797 800 803 806 809 811 812
787 785 784 782 780 779 776 774 772 770 768 767 765 763 762 760 759 758 755 753 752 750 748 747 745 744 743 743 741 739 738 740 741 741 741 741 742 742 741 740 739 738 738 738 739 739 740 740 740 740 741 741 742 743 744 745 747 748 750 752 753 755 758 760 761 763 765 768 770 773 774 776 778 781 783 786 790 793 796 799 802 804 806 809 811
787 785 783 782 779 778 776 773 771 769 767 765 763 761 760 758 757 756 754 751 749 748 746 744 743 742 740 739 738 736 735 736 737 737 737 738 738 738 737 736 736 735 735 735 735 736 736 737 737 737 738 738 740 741 742 743 745 747 748 750 752 754 756 758 760 762 764 767 770 772 773 775 777 780 783 786 788 791 794 797 799 802 804 807 810
786 784 783 781 779 777 775 773 771 768 766 764 762 760 758 757 756 755 753 750 747 745 744 742 740 739 737 736 736 734 732 733 734 734 734 735 735 734 734 733 732 732 731 732 732 732 733 733 734 734 735 736 737 738 739 741 743 744 746 748 750 753 754 756 758 760 763 766 768 770 772 775 777 780 783 785 788 790 792 794 797 799 802 805 808
786 784 782 780 779 777 775 773 770 768 765 763 761 759 757 755 754 753 751 749 746 744 743 740 737 736 735 733 733 731 729 729 731 731 731 731 732 731 731 731 729 728 728 728 728 729 729 729 730 731 732 733 735 736 737 738 740 742 744 746 748 751 753 755 757 758 760 763 766 769 773 775 778 781 783 785 787 789 792 794 795 798 801 804 806
785 783 781 779 777 775 773 771 769 767 764 762 759 758 756 754 752 750 748 747 744 742 740 739 735 732 732 731 729 729 728 726 727 727 727 728 728 728 728 727 726 726 726 725 725 725 725 726 727 728 729 730 732 733 735 736 738 740 742 743 745 748 752 755 757 758 759 762 766 769 772 775 777 780 782 784 786 789 791 793 795 797 800 802 804
784 782 779 777 775 773 772 770 767 765 763 761 758 755 754 752 750 748 746 744 742 739 737 736 734 730 729 728 727 726 725 724 724 724 724 724 725 725 724 723 723 724 723 722 722 722 722 722 723 724 726 727 729 731 732 734 737 739 740 742 743 746 750 753 755 757 758 761 765 769 772 774 777 780 782 784 786 787 790 792 794 797 798 800 801
783 780 778 776 773 771 770 768 765 763 761 759 756 753 751 750 748 746 744 741 739 737 734 734 732 728 726 725 724 723 723 722 722 721 721 721 721 721 720 720 720 721 721 720 719 719 719 719 720 721 723 724 726 729 731 733 735 737 739 741 743 746 748 750 752 755 758 761 765 768 771 774 776 779 781 783 784 786 788 791 793 795 796 797 798
781 778 776 773 771 769 767 765 763 761 758 757 754 751 748 747 745 743 742 739 737 734 732 731 730 726 723 722 722 721 721 720 720 719 719 719 719 718 718 717 718 718 718 717 717 717 717 718 718 719 720 721 723 726 728 730 732 735 738 741 743 745 747 749 751 754 758 762 765 767 770 773 775 778 779 781 783 785 788 790 792 793 794 795 797
779 776 774 771 769 767 764 762 760 758 756 754 752 749 746 744 742 740 739 738 735 732 730 729 728 725 721 719 719 719 719 718 717 717 717 717 716 716 716 716 716 716 715 715 716 717 717 717 717 718 718 719 720 723 726 729 731 734 737 739 742 745 745 747 751 754 758 761 764 766 769 771 773 775 778 780 782 785 787 789 791 792 793 794 796
776 774 771 769 766 764 762 759 757 756 754 752 750 747 744 742 740 738 737 736 734 731 728 726 725 723 720 717 716 716 716 716 715 715 715 714 714 713 713 714 714 713 713 713 714 716 717 717 717 717 717 718 719 721 724 727 730 733 735 737 740 743 743 746 750 753 756 759 761 764 767 770 772 775 777 780 782 784 786 788 789 791 792 793 795
774 772 769 766 764 762 759 756 754 752 751 749 747 745 743 741 738 735 734 733 732 729 726 724 722 720 718 716 714 713 713 712 712 712 712 712 711 710 710 710 711 711 711 711 713 715 716 717 717 717 717 717 717 719 721 723 727 731 733 736 738 740 741 744 748 751 754 757 760 763 766 769 773 775 778 780 781 783 785 787 788 790 791 793 795
773 770 768 765 762 760 758 754 751 749 747 745 744 742 740 739 737 733 731 730 729 726 724 722 720 718 716 714 712 710 709 709 709 710 710 709 708 707 708 708 708 709 709 709 711 712 714 716 717 717 717 717 718 719 721 723 725 728 731 734 736 738 741 744 747 749 753 756 759 763 766 770 773 776 778 779 781 783 784 786 788 790 791 793 794
771 768 766 764 761 759 757 753 750 747 744 742 741 738 736 735 733 730 728 727 726 723 721 719 717 716 715 712 710 709 707 706 707 707 707 706 706 706 706 705 705 706 706 707 708 710 712 715 716 717 717 717 718 719 721 723 724 726 730 734 735 738 741 744 747 750 753 755 758 761 765 769 772 775 777 779 781 782 784 786 787 789 791 792 793
768 765 763 761 758 756 754 751 749 746 742 739 737 735 733 732 730 725 723 723 723 721 718 715 713 713 712 710 709 707 704 703 704 705 704 704 704 704 704 704 703 704 704 705 707 708 711 713 714 715 716 715 715 716 717 720 722 725 730 733 734 737 741 743 745 749 751 753 756 759 763 767 771 774 776 778 780 782 784 785 787 788 790 791 792
766 763 761 759 756 754 751 748 746 744 741 737 734 730 727 726 726 723 719 717 718 717 715 711 710 710 709 707 707 706 703 701 702 702 702 702 702 702 702 702 702 703 703 704 706 706 707 710 711 713 713 713 712 713 714 716 719 723 727 730 732 736 739 741 744 747 749 752 754 757 761 765 768 771 774 777 779 781 783 784 786 787 789 790 792
765 761 760 757 754 752 749 746 743 741 738 736 733 729 724 719 718 718 716 714 712 712 710 708 707 707 705 703 702 702 700 699 699 699 699 700 700 700 700 700 701 701 703 704 705 704 705 706 708 709 710 710 710 710 711 712 715 719 723 727 730 734 737 740 743 746 748 749 752 756 759 762 765 769 772 775 778 780 782 783 785 787 788 790 791
765 761 759 756 753 751 748 744 741 738 735 733 731 729 725 719 713 710 710 711 709 707 706 704 703 702 701 699 698 697 697 696 696 696 696 696 696 697 698 698 698 700 701 703 703 703 704 704 705 706 708 709 709 710 711 712 715 718 721 724 729 734 736 739 743 745 746 747 750 754 758 761 764 767 771 774 777 779 780 782 784 786 788 789 791
765 761 758 755 752 749 746 743 741 737 734 732 729 726 725 722 716 709 705 704 704 703 702 700 699 698 697 696 695 693 693 693 692 692 692 692 692 693 694 695 696 697 698 699 700 701 702 703 703 704 706 708 709 711 712 714 716 719 720 723 728 732 735 739 743 745 745 747 750 753 756 759 762 766 770 773 776 777 779 781 783 785 787 788 790
763 760 757 755 751 747 744 742 739 736 733 730 727 724 721 719 717 712 706 701 699 697 696 696 696 695 693 692 691 690 690 689 689 689 689 689 689 689 691 692 693 694 695 695 696 698 699 700 701 702 704 705 707 710 712 714 717 720 722 724 728 731 735 739 742 743 745 747 750 753 755 758 761 765 768 771 773 775 777 779 781 783 785 787 788
760 757 755 753 750 745 742 740 737 734 730 727 724 722 719 715 713 711 708 703 699 695 692 692 692 691 690 689 688 687 686 686 685 685 686 686 686 687 688 689 690 691 691 692 693 695 697 698 699 700 702 704 706 707 709 712 716 718 721 724 728 731 734 738 740 742 744 747 749 752 754 758 761 764 767 769 771 773 775 777 779 781 783 785 787
756 753 750 749 746 743 739 736 734 731 727 724 720 717 715 712 710 707 704 702 698 694 691 689 688 687 686 685 685 684 683 682 682 681 682 683 683 683 684 684 685 687 688 689 690 692 695 696 698 699 701 703 705 708 709 711 714 717 719 723 727 730 733 735 738 740 743 746 748 751 754 757 760 763 765 767 769 771 773 776 778 780 782 784 786
753 749 746 743 741 738 735 731 729 727 724 720 716 714 710 707 705 703 700 697 695 692 689 686 685 684 682 681 681 681 680 680 679 678 679 681 682 681 680 681 682 683 684 685 687 690 692 695 697 698 700 702 704 707 709 712 715 717 719 723 726 729 731 733 736 738 741 744 747 751 754 756 759 761 763 765 767 769 772 774 776 778 780 782 784
749 745 742 740 737 734 730 727 724 722 719 715 712 710 707 703 700 698 696 693 691 688 686 684 682 681 679 677 678 678 677 677 677 676 677 678 678 678 678 679 680 681 682 683 686 688 690 693 695 697 699 701 703 705 708 711 714 717 720 724 727 729 730 732 735 738 741 743 747 750 753 755 758 760 761 763 765 768 770 772 774 777 779 780 781
744 741 738 736 733 730 726 723 719 717 715 711 708 706 703 700 696 694 691 689 687 684 682 681 679 677 676 675 675 675 675 675 674 673 673 674 674 675 676 677 678 679 680 682 685 687 690 691 693 696 698 699 701 704 706 709 713 717 721 723 725 727 729 731 734 737 740 743 746 749 751 754 756 758 759 761 764 766 768 771 773 775 777 778 779
740 736 734 732 730 726 722 719 716 713 710 707 704 701 699 696 693 690 687 685 682 680 679 677 675 673 673 673 673 672 672 671 671 670 670 671 672 673 673 675 676 677 679 681 684 686 688 691 693 695 697 699 701 703 706 709 712 716 719 721 722 724 727 730 733 736 739 742 745 747 750 752 754 756 758 760 762 765 767 769 771 773 775 776 777
737 733 730 728 726 723 719 715 712 709 706 703 700 697 695 692 689 687 684 681 679 676 675 673 671 670 670 670 670 670 669 668 668 668 668 668 670 671 672 673 674 676 678 680 682 685 687 690 692 694 696 698 700 702 705 708 711 714 716 718 720 722 726 729 732 735 738 740 743 746 748 750 752 754 756 758 761 764 766 768 770 771 773 774 775
735 731 727 724 722 719 716 712 709 705 702 699 696 693 691 688 686 683 680 677 675 673 671 669 668 667 667 667 667 667 666 666 666 666 666 666 668 670 671 672 674 676 677 679 681 684 686 688 691 693 695 697 699 701 704 706 709 711 713 715 718 721 724 727 730 733 736 739 741 744 746 748 750 752 755 757 760 762 764 766 768 769 770 772 773
733 729 725 722 719 716 713 709 706 702 698 695 691 689 686 684 682 679 676 673 671 669 668 666 665 664 664 664 664 664 664 664 664 664 664 664 666 668 670 672 674 676 677 678 681 684 686 688 690 692 694 696 698 700 702 704 706 708 711 714 717 720 723 725 729 731 734 737 740 742 744 746 748 751 753 756 758 760 762 764 765 767 768 770 771
731 727 723 719 716 713 709 706 703 699 694 691 688 685 682 681 678 675 672 669 667 666 664 663 662 662 662 661 662 662 662 662 662 663 663 663 664 667 669 672 673 675 676 678 681 683 685 687 689 691 693 695 697 699 701 703 705 707 710 712 715 718 721 724 727 729 732 735 737 740 742 744 747 749 752 754 756 758 760 761 763 765 766 767 768
728 725 721 717 713 709 706 703 700 695 691 688 684 681 679 677 674 670 668 666 663 662 661 660 660 660 659 660 660 660 660 660 661 662 663 663 664 666 669 671 673 675 676 678 681 683 685 687 688 690 692 694 696 699 701 703 706 708 710 712 715 717 720 723 726 729 731 733 736 738 740 743 745 748 750 752 754 756 758 759 761 762 764 765 766
725 722 718 714 711 707 703 700 696 692 688 685 681 677 675 672 670 667 664 662 660 659 658 657 657 658 658 658 658 658 659 659 660 661 662 663 665 667 669 671 673 675 677 679 681 683 685 687 688 690 691 693 696 698 701 703 705 708 710 713 715 718 721 723 726 728 730 732 734 737 739 741 744 746 748 750 752 754 756 758 759 760 762 763 764
722 719 716 712 708 704 700 696 693 689 685 681 678 674 671 668 666 663 661 659 657 656 655 655 656 656 656 657 657 658 658 659 660 661 662 663 665 667 669 671 673 675 677 679 681 683 685 686 688 690 692 694 696 698 700 703 705 707 710 712 715 717 720 722 725 727 729 731 733 736 738 740 742 744 746 748 750 752 754 755 757 758 760 761 762
719 715 712 708 705 701 697 693 690 686 681 678 674 671 668 665 662 660 658 656 655 654 654 654 654 654 655 656 657 657 658 659 660 661 662 663 665 668 670 672 674 676 678 680 682 683 685 686 688 690 692 694 696 699 701 703 705 707 709 712 715 717 719 722 724 726 728 730 732 735 737 738 741 743 745 746 748 750 751 753 754 756 757 758 759
717 713 709 705 702 698 694 690 686 682 679 675 671 668 665 662 659 657 655 654 653 653 653 653 653 654 655 656 656 657 658 659 660 662 663 664 666 669 671 673 675 677 678 680 682 684 685 687 688 690 693 695 697 699 701 703 705 708 710 712 714 716 719 721 723 725 727 729 731 733 735 737 739 741 743 745 746 748 750 751 752 754 755 756 757
715 712 708 704 701 696 692 688 684 680 676 673 669 665 662 660 657 655 654 653 653 652 652 652 653 654 654 655 657 658 658 659 661 662 663 665 667 670 672 674 676 677 679 681 682 684 686 688 689 691 694 696 698 700 702 704 706 708 710 712 714 716 718 720 723 725 726 728 730 732 734 736 738 740 741 743 744 746 747 749 750 751 752 753 755
715 711 707 704 700 696 691 687 683 679 675 671 667 664 661 658 657 655 654 653 653 653 652 652 653 654 655 656 657 658 659 660 661 663 664 666 668 671 673 675 677 679 680 682 684 685 687 689 691 693 694 696 698 700 702 704 706 708 710 712 714 716 718 720 722 724 726 727 729 731 733 735 737 738 739 741 742 744 745 746 747 749 750 751 753